Date String (YYYY-MM-DD hh:mm:ss) UTC,Instrument flags,Ambient pressure (hPa),Sample flow (lpm),Bypass flow (lpm),Sample temperature (°C),Ambient temperature (°C),ASC tube jacket temperature (°C),LED temperature (°C),Box temperature (°C),Sample RH (%),Span deviation,Mass concentration (μg/m³),Mass concentration (μg/m³),Mass concentration (μg/m³)
DateTimeUTC,F1_M11,P_M11,Q1_M11,Q2_M11,T1_M11,T2_M11,T3_M11,T4_M11,T5_M11,U1_M11,ZSPAN_M11,X0_M11,X2_M11,X1_M11
2022-06-15 23:00:00,,0824.0,5.01,0.00,29.2,27.6,00.0,38.0,31.2,08.2,0000.0,0004.25,0001.86,0001.46
2022-06-15 23:01:00,,0824.0,5.01,0.00,29.3,27.8,00.0,38.1,31.2,08.1,0000.0,0004.09,0001.88,0001.48
2022-06-15 23:02:00,,0824.0,5.00,0.00,29.3,28.0,00.0,38.1,31.3,08.0,0000.0,0004.06,0001.86,0001.49
2022-06-15 23:03:00,,0824.0,5.00,0.00,29.3,28.2,00.0,38.1,31.3,07.8,0000.0,0004.08,0001.86,0001.48
2022-06-15 23:04:00,,0824.0,5.00,0.00,29.4,28.3,00.0,38.1,31.4,07.8,0000.0,0003.84,0001.87,0001.49
2022-06-15 23:05:00,,0824.0,5.01,0.00,29.4,28.5,00.0,38.1,31.5,07.7,0000.0,0003.03,0001.89,0001.49
2022-06-15 23:06:00,,0824.0,4.99,0.00,29.5,28.6,00.0,38.2,31.5,07.6,0000.0,0003.12,0001.92,0001.50
2022-06-15 23:07:00,,0824.0,5.00,0.00,29.5,28.2,00.0,38.1,31.4,07.6,0000.0,0003.23,0001.95,0001.51
2022-06-15 23:08:00,,0824.0,5.01,0.00,29.4,27.4,00.0,38.1,31.1,07.7,0000.0,0003.27,0001.97,0001.52
2022-06-15 23:09:00,,0824.0,5.01,0.00,29.3,27.2,00.0,38.1,31.0,07.8,0000.0,0003.16,0001.96,0001.51
2022-06-15 23:10:00,,0824.0,5.00,0.00,29.3,27.3,00.0,38.1,31.1,07.9,0000.0,0003.19,0001.95,0001.51
2022-06-15 23:11:00,,0824.1,5.00,0.00,29.3,27.4,00.0,38.1,31.1,07.9,0000.0,0003.33,0002.01,0001.51
2022-06-15 23:12:00,,0824.1,5.00,0.00,29.3,27.6,00.0,38.1,31.2,07.9,0000.0,0003.47,0002.05,0001.51
2022-06-15 23:13:00,,0824.1,5.00,0.00,29.3,27.8,00.0,38.1,31.2,07.8,0000.0,0003.52,0002.09,0001.51
2022-06-15 23:14:00,,0824.1,5.00,0.00,29.3,28.0,00.0,38.1,31.3,07.7,0000.0,0003.59,0002.13,0001.52
2022-06-15 23:15:00,,0824.1,5.00,0.00,29.4,28.2,00.0,38.1,31.4,07.5,0000.0,0003.60,0002.12,0001.52
2022-06-15 23:16:00,,0824.1,4.98,0.00,29.4,28.3,00.0,38.1,31.4,07.5,0000.0,0004.28,0002.15,0001.52
2022-06-15 23:17:00,,0824.1,4.99,0.00,29.4,28.5,00.0,38.2,31.5,07.4,0000.0,0004.32,0002.17,0001.53
2022-06-15 23:18:00,,0824.1,5.01,0.00,29.5,28.7,00.0,38.2,31.5,07.3,0000.0,0004.28,0002.18,0001.54
2022-06-15 23:19:00,,0824.1,5.00,0.00,29.5,28.4,00.0,38.2,31.4,07.4,0000.0,0004.12,0002.11,0001.52
2022-06-15 23:20:00,,0824.1,5.01,0.00,29.4,27.6,00.0,38.1,31.2,07.5,0000.0,0004.10,0002.11,0001.53
2022-06-15 23:21:00,,0824.1,4.99,0.00,29.4,27.3,00.0,38.1,31.1,07.5,0000.0,0003.94,0002.10,0001.54
2022-06-15 23:22:00,,0824.1,5.00,0.00,29.3,27.3,00.0,38.1,31.1,07.5,0000.0,0003.94,0002.10,0001.55
2022-06-15 23:23:00,,0824.1,5.01,0.00,29.3,27.4,00.0,38.1,31.1,07.6,0000.0,0003.76,0002.04,0001.55
2022-06-15 23:24:00,,0824.1,4.99,0.00,29.3,27.6,00.0,38.1,31.2,07.5,0000.0,0003.63,0001.98,0001.54
2022-06-15 23:25:00,,0824.2,4.99,0.00,29.3,27.8,00.0,38.1,31.2,07.5,0000.0,0003.64,0001.97,0001.55
2022-06-15 23:26:00,,0824.1,5.00,0.00,29.3,28.0,00.0,38.1,31.3,07.4,0000.0,0003.67,0002.00,0001.56
2022-06-15 23:27:00,,0824.1,5.00,0.00,29.4,28.1,00.0,38.1,31.4,07.4,0000.0,0003.10,0001.97,0001.57
2022-06-15 23:28:00,,0824.1,5.00,0.00,29.4,28.3,00.0,38.1,31.4,07.4,0000.0,0002.95,0001.96,0001.57
2022-06-15 23:29:00,,0824.1,4.99,0.00,29.4,28.5,00.0,38.2,31.5,07.4,0000.0,0002.91,0001.93,0001.56
2022-06-15 23:30:00,,0824.1,5.01,0.00,29.5,28.6,00.0,38.2,31.5,07.4,0000.0,0003.08,0001.97,0001.58
2022-06-15 23:31:00,,0824.1,5.01,0.00,29.5,28.2,00.0,38.2,31.4,07.4,0000.0,0003.28,0002.03,0001.58
2022-06-15 23:32:00,,0824.1,5.00,0.00,29.4,27.4,00.0,38.1,31.2,07.5,0000.0,0003.29,0002.02,0001.56
2022-06-15 23:33:00,,0824.0,5.01,0.00,29.4,27.2,00.0,38.1,31.1,07.6,0000.0,0003.24,0001.99,0001.57
2022-06-15 23:34:00,,0824.0,4.99,0.00,29.3,27.2,00.0,38.1,31.1,07.4,0000.0,0003.32,0002.02,0001.57
2022-06-15 23:35:00,,0824.0,5.01,0.00,29.3,27.4,00.0,38.1,31.1,07.4,0000.0,0003.48,0002.06,0001.58
2022-06-15 23:36:00,,0824.0,5.00,0.00,29.3,27.6,00.0,38.1,31.2,07.2,0000.0,0003.43,0002.04,0001.57
2022-06-15 23:37:00,,0824.0,4.99,0.00,29.3,27.8,00.0,38.1,31.3,07.2,0000.0,0003.44,0002.03,0001.57
2022-06-15 23:38:00,,0824.0,5.00,0.00,29.3,28.0,00.0,38.1,31.3,07.1,0000.0,0003.45,0002.03,0001.57
2022-06-15 23:39:00,,0824.0,5.00,0.00,29.4,28.2,00.0,38.1,31.4,07.0,0000.0,0003.33,0002.02,0001.57
2022-06-15 23:40:00,,0824.0,5.01,0.00,29.4,28.3,00.0,38.2,31.4,07.1,0000.0,0003.25,0002.00,0001.57
2022-06-15 23:41:00,,0824.0,5.00,0.00,29.5,28.5,00.0,38.2,31.5,07.1,0000.0,0003.13,0001.98,0001.57
2022-06-15 23:42:00,,0824.0,5.00,0.00,29.5,28.5,00.0,38.2,31.5,07.1,0000.0,0002.93,0001.92,0001.58
2022-06-15 23:43:00,,0824.0,5.00,0.00,29.5,27.9,00.0,38.2,31.3,07.2,0000.0,0002.92,0001.94,0001.59
2022-06-15 23:44:00,,0824.0,5.00,0.00,29.4,27.2,00.0,38.1,31.1,07.3,0000.0,0003.05,0001.97,0001.60
2022-06-15 23:45:00,,0824.0,5.00,0.00,29.3,27.1,00.0,38.1,31.0,07.3,0000.0,0003.68,0001.95,0001.59
2022-06-15 23:46:00,,0824.0,5.00,0.00,29.3,27.2,00.0,38.1,31.1,07.3,0000.0,0003.65,0001.95,0001.57
2022-06-15 23:47:00,,0824.0,5.01,0.00,29.3,27.4,00.0,38.1,31.1,07.4,0000.0,0003.57,0001.93,0001.57
2022-06-15 23:48:00,,0824.0,5.00,0.00,29.3,27.6,00.0,38.1,31.2,07.4,0000.0,0003.64,0001.97,0001.57
2022-06-15 23:49:00,,0824.0,4.99,0.00,29.3,27.8,00.0,38.1,31.2,07.4,0000.0,0003.61,0001.95,0001.56
2022-06-15 23:50:00,,0824.0,5.00,0.00,29.3,28.0,00.0,38.1,31.3,07.5,0000.0,0003.59,0001.94,0001.56
2022-06-15 23:51:00,,0824.0,5.01,0.00,29.4,28.2,00.0,38.1,31.4,07.5,0000.0,0003.67,0001.97,0001.56
2022-06-15 23:52:00,,0824.0,5.00,0.00,29.4,28.4,00.0,38.2,31.5,07.5,0000.0,0003.72,0001.97,0001.55
2022-06-15 23:53:00,,0824.0,4.99,0.00,29.5,28.5,00.0,38.2,31.5,07.5,0000.0,0003.81,0001.99,0001.54
2022-06-15 23:54:00,,0824.0,4.99,0.00,29.5,28.5,00.0,38.2,31.5,07.6,0000.0,0004.01,0002.00,0001.53
2022-06-15 23:55:00,,0824.0,5.00,0.00,29.4,27.6,00.0,38.1,31.2,07.5,0000.0,0003.92,0002.00,0001.53
2022-06-15 23:56:00,,0824.0,5.01,0.00,29.3,27.1,00.0,38.1,31.0,07.7,0000.0,0003.28,0002.03,0001.53
2022-06-15 23:57:00,,0824.0,4.99,0.00,29.3,27.1,00.0,38.1,31.0,07.5,0000.0,0003.24,0002.04,0001.55
2022-06-15 23:58:00,,0824.0,5.01,0.00,29.3,27.2,00.0,38.1,31.1,07.6,0000.0,0003.33,0002.07,0001.56
2022-06-15 23:59:00,,0824.0,5.01,0.00,29.3,27.4,00.0,38.1,31.1,07.8,0000.0,0003.35,0002.05,0001.56
